When you browse on this site, cookies collect data to enhance your experience and personalize the content and advertising you see.
Visit our Privacy Policy to learn more. By continuing to use the site, you agree to this use of cookies and data.
  • In United Kingdom
  • List of Countries
  • For 7 days
  • Water Temperature
  • Satellite Maps
  • Weather Map
  • Weather Widgets
  • user-avatar
    Login

    Hourly Weather Cardiff

    Today, 18 June, Tuesday

    Time Temperature Precipitation Wind Pressure Humidity
    00:00 +12°C° 0 mm 1 mps 760 mmHg 96%
    01:00 +12°C° 0 mm 1 mps 760 mmHg 96%
    02:00 +12°C° 0 mm 1 mps 759 mmHg 96%
    03:00 +12°C° 0 mm 1 mps 759 mmHg 96%
    04:00 +13°C° 0 mm 1 mps 759 mmHg 95%
    05:00 +13°C° 0 mm 1 mps 759 mmHg 94%
    06:00 +14°C° 0 mm 1 mps 759 mmHg 93%
    07:00 +14°C° 0 mm 1 mps 759 mmHg 91%
    08:00 +15°C° 0 mm 1 mps 759 mmHg 88%
    09:00 +16°C° 0 mm 1 mps 758 mmHg 86%
    10:00 +15°C° 0.8 mm 1 mps 758 mmHg 88%
    11:00 +15°C° 0.8 mm 1 mps 758 mmHg 91%
    12:00 +15°C° 0.8 mm 1 mps 758 mmHg 94%
    13:00 +15°C° 0.6 mm 1 mps 757 mmHg 94%
    14:00 +13°C° 0.6 mm 0 mps 757 mmHg 95%
    15:00 +13°C° 0.6 mm 0 mps 757 mmHg 96%
    16:00 +14°C° 0.2 mm 1 mps 757 mmHg 95%
    17:00 +14°C° 0.2 mm 1 mps 757 mmHg 95%
    18:00 +14°C° 0.2 mm 1 mps 756 mmHg 95%
    19:00 +14°C° 0 mm 1 mps 756 mmHg 95%
    20:00 +14°C° 0 mm 1 mps 756 mmHg 94%
    21:00 +13°C° 0 mm 1 mps 756 mmHg 94%
    22:00 +13°C° 0.1 mm 1 mps 756 mmHg 95%
    23:00 +13°C° 0.1 mm 1 mps 755 mmHg 95%

    Tomorrow, 19 June, Wednesday

    Time Temperature Precipitation Wind Pressure Humidity
    00:00 +13°C° 0.1 mm 2 mps 755 mmHg 96%
    01:00 +13°C° 0.1 mm 1 mps 755 mmHg 96%
    02:00 +13°C° 0.1 mm 1 mps 755 mmHg 95%
    03:00 +13°C° 0.1 mm 1 mps 754 mmHg 95%
    04:00 +13°C° 0 mm 1 mps 754 mmHg 95%
    05:00 +13°C° 0 mm 2 mps 754 mmHg 95%
    06:00 +14°C° 0 mm 2 mps 754 mmHg 95%
    07:00 +14°C° 0 mm 2 mps 754 mmHg 93%
    08:00 +14°C° 0 mm 3 mps 755 mmHg 91%
    09:00 +16°C° 0 mm 3 mps 755 mmHg 88%
    10:00 +16°C° 0.3 mm 3 mps 755 mmHg 87%
    11:00 +16°C° 0.3 mm 3 mps 755 mmHg 86%
    12:00 +17°C° 0.3 mm 3 mps 756 mmHg 84%
    13:00 +17°C° 0.2 mm 4 mps 756 mmHg 83%
    14:00 +16°C° 0.2 mm 5 mps 755 mmHg 82%
    15:00 +16°C° 0.2 mm 5 mps 755 mmHg 80%
    16:00 +16°C° 0.1 mm 5 mps 755 mmHg 81%
    17:00 +15°C° 0.1 mm 6 mps 755 mmHg 82%
    18:00 +15°C° 0.1 mm 6 mps 755 mmHg 83%
    19:00 +13°C° 0 mm 5 mps 756 mmHg 85%
    20:00 +12°C° 0 mm 5 mps 756 mmHg 88%
    21:00 +10°C° 0 mm 4 mps 756 mmHg 91%
    22:00 +10°C° 0 mm 4 mps 756 mmHg 92%
    23:00 +9°C° 0 mm 3 mps 756 mmHg 93%

    Day after tomorrow, 20 June, Thursday

    Time Temperature Precipitation Wind Pressure Humidity
    00:00 +9°C° 0 mm 3 mps 756 mmHg 94%
    01:00 +9°C° 0 mm 3 mps 756 mmHg 95%
    02:00 +10°C° 0 mm 3 mps 756 mmHg 95%
    03:00 +10°C° 0 mm 4 mps 757 mmHg 96%
    04:00 +11°C° 0 mm 4 mps 757 mmHg 94%
    05:00 +11°C° 0 mm 4 mps 757 mmHg 93%
    06:00 +12°C° 0 mm 4 mps 757 mmHg 91%
    07:00 +13°C° 0 mm 4 mps 757 mmHg 87%
    08:00 +13°C° 0 mm 5 mps 757 mmHg 83%
    09:00 +14°C° 0 mm 5 mps 758 mmHg 79%
    10:00 +15°C° 0.1 mm 6 mps 758 mmHg 77%
    11:00 +15°C° 0.1 mm 7 mps 758 mmHg 76%
    12:00 +15°C° 0.1 mm 8 mps 758 mmHg 74%
    13:00 +15°C° 0 mm 8 mps 758 mmHg 73%
    14:00 +15°C° 0 mm 8 mps 758 mmHg 72%
    15:00 +15°C° 0 mm 8 mps 758 mmHg 71%
    16:00 +15°C° 0 mm 7 mps 758 mmHg 73%
    17:00 +14°C° 0 mm 6 mps 758 mmHg 76%
    18:00 +14°C° 0 mm 6 mps 759 mmHg 79%
    19:00 +13°C° 0 mm 5 mps 759 mmHg 83%
    20:00 +12°C° 0 mm 5 mps 759 mmHg 88%
    21:00 +10°C° 0 mm 4 mps 759 mmHg 93%
    22:00 +10°C° 0 mm 4 mps 759 mmHg 94%
    23:00 +10°C° 0 mm 4 mps 760 mmHg 94%

    21 June, Friday

    Time Temperature Precipitation Wind Pressure Humidity
    00:00 +10°C° 0 mm 4 mps 760 mmHg 95%
    01:00 +10°C° 0 mm 4 mps 760 mmHg 94%
    02:00 +10°C° 0 mm 4 mps 760 mmHg 94%
    03:00 +9°C° 0 mm 5 mps 760 mmHg 94%
    04:00 +10°C° 0 mm 4 mps 760 mmHg 92%
    05:00 +11°C° 0 mm 4 mps 760 mmHg 90%
    06:00 +11°C° 0 mm 4 mps 760 mmHg 88%
    07:00 +12°C° 0 mm 4 mps 761 mmHg 82%
    08:00 +13°C° 0 mm 5 mps 761 mmHg 77%
    09:00 +13°C° 0 mm 5 mps 761 mmHg 71%
    10:00 +14°C° 0 mm 5 mps 761 mmHg 70%
    11:00 +14°C° 0 mm 5 mps 761 mmHg 69%
    12:00 +15°C° 0 mm 5 mps 762 mmHg 67%
    13:00 +15°C° 0 mm 5 mps 762 mmHg 68%
    14:00 +15°C° 0 mm 5 mps 762 mmHg 68%
    15:00 +15°C° 0 mm 5 mps 762 mmHg 68%
    16:00 +15°C° 0 mm 5 mps 762 mmHg 70%
    17:00 +14°C° 0 mm 5 mps 762 mmHg 71%
    18:00 +14°C° 0 mm 4 mps 762 mmHg 73%
    19:00 +12°C° 0 mm 3 mps 762 mmHg 77%
    20:00 +11°C° 0 mm 3 mps 762 mmHg 81%
    21:00 +9°C° 0 mm 2 mps 763 mmHg 86%
    22:00 +9°C° 0 mm 2 mps 763 mmHg 86%
    23:00 +9°C° 0 mm 1 mps 763 mmHg 87%

    22 June, Saturday

    Time Temperature Precipitation Wind Pressure Humidity
    00:00 +8°C° 0 mm 1 mps 763 mmHg 88%
    01:00 +8°C° 0 mm 1 mps 763 mmHg 88%
    02:00 +8°C° 0 mm 1 mps 763 mmHg 88%
    03:00 +8°C° 0 mm 1 mps 763 mmHg 88%
    04:00 +9°C° 0 mm 1 mps 763 mmHg 87%
    05:00 +10°C° 0 mm 1 mps 763 mmHg 85%
    06:00 +11°C° 0 mm 1 mps 763 mmHg 83%
    07:00 +12°C° 0 mm 1 mps 763 mmHg 79%
    08:00 +14°C° 0 mm 1 mps 763 mmHg 75%
    09:00 +15°C° 0 mm 1 mps 763 mmHg 71%
    10:00 +16°C° 0 mm 1 mps 763 mmHg 70%
    11:00 +18°C° 0 mm 1 mps 763 mmHg 68%
    12:00 +18°C° 0 mm 1 mps 763 mmHg 66%
    13:00 +19°C° 0 mm 1 mps 763 mmHg 66%
    14:00 +19°C° 0 mm 1 mps 763 mmHg 66%
    15:00 +19°C° 0 mm 1 mps 763 mmHg 66%
    16:00 +19°C° 0.1 mm 1 mps 763 mmHg 69%
    17:00 +17°C° 0.1 mm 2 mps 763 mmHg 72%
    18:00 +17°C° 0.1 mm 2 mps 763 mmHg 75%
    19:00 +15°C° 0 mm 2 mps 763 mmHg 80%
    20:00 +14°C° 0 mm 1 mps 764 mmHg 84%
    21:00 +12°C° 0 mm 1 mps 764 mmHg 88%
    22:00 +12°C° 0 mm 1 mps 764 mmHg 88%
    23:00 +12°C° 0 mm 1 mps 764 mmHg 88%

    23 June, Sunday

    Time Temperature Precipitation Wind Pressure Humidity
    00:00 +12°C° 0 mm 1 mps 764 mmHg 89%
    01:00 +10°C° 0 mm 2 mps 764 mmHg 89%
    02:00 +10°C° 0 mm 2 mps 764 mmHg 89%
    03:00 +10°C° 0 mm 3 mps 764 mmHg 90%
    04:00 +10°C° 0 mm 3 mps 764 mmHg 89%
    05:00 +11°C° 0 mm 3 mps 764 mmHg 88%
    06:00 +12°C° 0 mm 3 mps 764 mmHg 87%
    07:00 +13°C° 0 mm 4 mps 765 mmHg 85%
    08:00 +14°C° 0 mm 4 mps 765 mmHg 82%
    09:00 +17°C° 0 mm 4 mps 765 mmHg 80%
    10:00 +18°C° 0.1 mm 4 mps 765 mmHg 77%
    11:00 +17°C° 0.1 mm 5 mps 765 mmHg 74%
    12:00 +19°C° 0.1 mm 5 mps 765 mmHg 71%
    13:00 +19°C° 0.1 mm 5 mps 765 mmHg 71%
    14:00 +20°C° 0.1 mm 5 mps 764 mmHg 71%
    15:00 +20°C° 0.1 mm 5 mps 764 mmHg 71%
    16:00 +19°C° 0.1 mm 5 mps 764 mmHg 74%
    17:00 +19°C° 0.1 mm 5 mps 764 mmHg 76%
    18:00 +17°C° 0.1 mm 5 mps 764 mmHg 79%
    19:00 +16°C° 0 mm 5 mps 764 mmHg 80%
    20:00 +15°C° 0 mm 5 mps 764 mmHg 82%
    21:00 +14°C° 0 mm 5 mps 765 mmHg 83%
    22:00 +14°C° 0 mm 6 mps 765 mmHg 82%
    23:00 +13°C° 0 mm 6 mps 764 mmHg 80%
    Show more